SCP
0 1 1 2 2 2 1 1 1 1 1 1 1 1 1 0 0 0 0 0 0 0 0 0 0 0 1 1 0 0 0 0 0 0 0 0 0 0 0 0 0 0 0
0 1 1 2 2 2 2 2 2 1 1 1 1 1 1 0 0 0 0 0 0 0 0 0 0 0 1 1 0 0 0 0 0 0 0 0 0 0 0 0 0 0 0
0 1 2 2 2 2 2 2 2 2 1 1 1 1 1 0 0 0 0 0 0 0 0 0 0 0 0 0 0 0 0 0 0 0 0 0 0 0 0 0 0 0 0
1 1 2 3 3 2 2 2 2 2 2 1 1 1 1 0 0 0 0 0 0 0 0 0 0 0 0 0 0 0 0 0 0 0 0 0 0 0 0 0 0 0 0
1 1 2 3 3 2 2 2 2 2 1 1 1 1 1 0 0 0 0 0 0 0 0 0 0 0 0 0 0 0 0 0 0 0 0 0 0 0 0 0 0 0 0
1 2 2 3 3 2 2 2 1 1 1 1 1 1 0 0 0 0 0 0 0 0 0 0 0 0 0 0 0 0 0 0 0 0 0 0 0 0 0 0 0 0 0
2 2 3 3 2 2 2 1 1 1 1 1 1 1 0 0 0 0 0 0 0 0 0 0 0 0 0 0 0 0 0 0 0 0 0 0 0 0 0 0 0 0 0
2 2 3 2 2 2 2 1 1 1 1 1 1 1 0 0 0 0 0 0 0 0 0 0 0 0 0 0 0 0 0 0 0 0 0 0 0 0 0 0 0 0 0
2 2 2 2 1 1 1 1 1 1 1 1 1 0 0 0 0 0 0 0 0 0 0 0 0 0 0 0 0 0 0 0 0 0 0 0 0 0 0 0 0 0 0
2 2 2 1 1 1 1 1 1 1 0 0 0 0 0 0 0 0 0 0 0 0 0 0 0 0 0 0 0 0 0 0 0 0 0 0 0 0 0 0 0 0 0
2 2 1 1 0 0 0 0 0 0 0 0 0 0 0 0 0 0 0 0 0 0 0 0 0 0 0 0 0 0 0 0 0 0 0 0 0 0 0 0 0 0 0
1 1 1 0 0 0 0 0 0 0 0 0 0 0 0 0 0 0 0 0 0 0 0 0 0 0 0 0 0 0 0 0 0 0 0 0 0 0 0 0 0 0 0
1 1 1 0 0 0 0 0 0 0 0 0 0 0 0 0 0 0 0 0 0 0 0 0 0 0 0 0 0 0 0 0 0 0 0 0 0 0 0 0 0 0 0
1 1 1 0 0 0 0 0 0 0 0 0 0 0 0 0 0 0 0 0 0 0 0 0 0 0 0 0 0 0 0 0 0 0 0 0 0 0 0 0 0 0 0
2 1 1 0 0 0 0 0 0 0 0 0 0 0 0 0 0 0 0 0 0 0 0 0 0 0 0 0 0 0 0 0 0 0 0 0 0 0 0 0 0 0 0
2 1 1 1 0 0 0 0 0 0 0 0 0 0 0 0 0 0 0 0 0 0 0 0 0 0 0 0 0 0 0 0 0 0 0 0 0 0 0 0 0 0 0
2 2 1 1 0 0 0 0 0 0 0 0 0 0 0 0 0 0 0 0 0 0 0 0 0 0 0 0 0 0 0 0 0 0 0 0 0 0 0 0 0 0 0
2 2 1 1 0 0 0 0 0 0 0 0 0 0 0 0 0 0 0 0 0 0 0 0 0 0 0 0 0 0 0 0 0 0 0 0 0 0 0 0 0 0 0
2 2 2 1 0 0 0 0 0 0 0 0 0 0 0 0 0 0 0 0 0 0 0 0 0 0 0 0 0 0 0 0 0 0 0 0 0 0 0 0 0 0 0
2 2 2 1 1 0 0 0 0 0 0 0 0 0 0 0 0 0 0 0 0 0 0 0 0 0 0 0 0 0 0 0 0 0 0 0 0 0 0 0 0 0 0
2 2 2 1 1 1 0 0 0 0 0 0 0 0 0 0 0 0 0 0 0 0 0 0 0 0 0 0 0 0 0 0 0 0 0 0 0 0 0 0 0 0 0
1 1 1 2 1 1 0 0 0 0 0 0 0 0 0 0 0 0 0 0 0 0 0 0 0 0 0 0 0 0 0 0 0 0 0 0 0 0 0 0 0 0 0
1 1 1 2 2 1 0 0 0 0 0 0 0 0 0 0 0 0 0 0 0 0 0 0 0 0 0 0 0 0 0 0 0 0 0 0 0 0 0 0 0 0 0
1 1 1 2 2 1 1 0 0 0 0 0 0 0 0 0 0 0 0 0 0 0 0 0 0 0 0 0 0 0 0 0 0 0 0 0 0 0 0 0 0 0 0
1 1 1 2 2 1 1 0 0 0 0 0 0 0 0 0 0 0 0 0 0 0 0 0 0 0 0 0 0 0 0 0 0 0 0 0 0 0 0 0 0 0 0
1 1 1 2 2 2 1 0 0 0 0 0 0 0 0 0 0 0 0 0 0 0 0 0 0 0 0 0 0 0 0 0 0 0 0 0 0 0 0 0 0 0 0
Wind_Speed
10 12 22 21 21 21 21 20 19 19 18 18 18 17 17 17 16 16 16 16 15 16 16 16 16 17 16 16 16 16 16 17 17 16 16 16 16 15 15 14 13 8 15
15 15 23 22 22 22 21 20 19 19 18 18 18 18 17 16 16 16 16 15 15 15 15 16 16 16 16 16 15 15 15 16 16 16 15 13 14 14 14 14 13 9 14
17 16 20 23 22 22 21 21 20 19 18 18 17 17 17 16 16 16 16 15 15 15 15 15 15 15 15 14 14 14 15 15 15 14 12 6 7 13 13 13 13 13 13
18 15 16 23 23 22 22 21 20 19 18 18 18 17 17 16 16 16 16 15 15 15 15 15 15 14 14 13 13 14 14 14 14 13 6 5 5 11 12 13 12 13 12
15 14 17 23 23 22 22 21 20 19 19 18 18 17 17 16 16 16 16 15 15 15 15 14 14 13 13 13 13 13 13 14 14 9 5 5 4 10 12 12 12 12 12
14 12 17 23 23 22 22 21 20 20 19 18 18 17 17 17 17 16 15 15 15 14 14 14 13 13 12 12 12 12 13 13 10 5 5 4 3 9 11 11 12 12 12
14 12 16 22 23 22 22 21 21 20 19 18 18 17 17 17 16 16 15 15 14 14 13 13 12 12 11 11 11 11 12 12 6 4 4 3 4 10 11 10 10 11 11
15 13 15 22 21 22 21 21 20 20 19 19 18 17 17 17 16 15 15 14 14 13 12 11 11 11 10 10 10 10 10 9 6 4 3 3 7 10 10 10 10 10 10
13 12 11 13 16 20 20 20 20 20 19 19 18 18 17 16 16 15 15 14 13 12 11 11 10 10 9 8 8 9 9 9 4 2 3 2 7 8 9 9 9 10 10
11 11 10 10 11 11 12 17 18 18 18 18 17 16 16 15 15 15 13 13 13 12 11 10 9 8 7 6 6 7 8 7 3 3 1 2 7 8 8 9 9 9 9
13 10 10 10 10 9 9 13 14 15 16 16 14 16 13 7 7 8 9 12 12 11 10 9 8 7 5 4 4 6 6 2 2 1 0 4 6 7 7 7 7 8 8
18 15 12 11 11 10 10 8 7 7 8 7 7 8 6 5 5 7 10 11 11 10 9 8 7 5 3 1 2 4 2 2 2 1 0 4 5 6 6 6 6 7 7
19 17 14 13 12 11 8 7 5 4 5 6 8 7 6 5 4 4 3 5 5 5 3 3 3 1 1 1 1 1 2 2 1 0 0 4 4 5 5 5 6 6 6
18 17 15 14 13 11 9 7 6 5 5 6 7 8 6 4 4 4 3 3 3 2 2 2 1 1 1 1 1 2 2 2 2 1 1 3 3 3 4 4 4 4 5
19 18 17 16 14 12 10 8 8 7 7 7 6 7 7 6 5 5 4 3 3 3 3 2 2 2 2 1 2 3 3 3 3 2 1 2 2 2 2 2 2 2 3
19 19 18 17 16 14 11 9 8 8 7 7 7 8 9 6 6 6 5 4 4 3 3 3 3 3 2 2 2 2 3 3 2 2 1 1 2 2 1 0 1 1 2
20 19 19 18 17 16 13 12 9 8 8 8 8 8 9 8 8 7 6 5 5 4 4 3 2 2 2 2 2 2 2 2 3 3 2 1 1 1 2 2 1 1 2
18 19 19 17 17 17 14 12 9 9 9 8 7 8 10 10 9 7 6 6 5 4 4 3 3 2 2 2 1 1 1 2 3 3 2 2 2 1 2 3 3 3 3
19 19 20 18 19 17 15 11 10 9 9 8 7 8 9 11 10 8 6 6 6 4 4 4 3 3 2 2 2 1 1 1 2 2 2 3 3 3 2 3 4 4 5
17 18 19 18 18 16 12 9 8 8 8 8 8 9 10 10 11 8 6 7 6 5 4 3 3 2 2 3 1 0 1 1 1 2 3 2 3 3 3 2 2 3 5
17 18 19 19 18 15 13 12 12 11 10 9 8 10 11 10 11 9 7 7 7 6 6 5 4 3 2 2 2 1 2 2 2 2 2 2 3 3 3 3 2 2 2
20 21 21 20 20 18 15 13 10 9 7 7 6 9 11 11 11 10 9 8 7 6 6 6 4 3 2 3 3 2 1 3 3 2 2 2 3 2 2 3 3 3 3
20 22 20 22 20 19 15 9 7 5 4 5 8 9 11 12 12 10 10 9 8 7 7 7 6 6 4 3 3 4 3 4 2 2 2 2 2 2 3 2 3 3 3
21 21 21 22 20 19 17 14 15 12 11 11 10 9 9 11 12 11 11 10 9 8 7 8 7 5 5 4 2 2 3 3 2 2 3 2 2 3 4 3 3 3 3
19 19 20 20 20 19 19 19 18 13 11 7 7 9 9 9 11 11 11 11 10 8 8 8 7 6 5 5 4 3 2 1 2 2 3 3 3 3 3 4 3 3 4
17 17 18 20 20 20 20 20 19 17 13 11 10 11 10 7 8 11 11 11 10 9 9 8 8 8 7 6 4 4 4 3 4 3 4 3 3 3 3 3 4 4 3
Wind_Direction
170 172 161 155 150 145 141 137 134 130 127 125 123 121 119 117 115 112 109 106 104 102 100 98 95 93 92 90 88 85 83 80 76 73 70 69 69 68 66 64 59 50 55
156 165 159 156 150 146 142 139 135 132 130 129 126 124 122 120 118 115 112 109 106 105 103 100 97 96 94 94 92 87 83 84 80 75 69 65 68 69 67 64 62 58 57
153 159 157 156 152 148 144 140 137 135 133 132 130 128 126 124 122 118 115 112 109 106 104 101 99 98 97 96 93 89 85 87 85 79 67 44 57 67 65 61 58 56 55
153 155 155 156 152 149 146 142 140 139 137 135 133 131 130 128 125 121 117 114 111 109 106 104 102 100 99 97 94 89 86 90 87 79 54 34 40 67 65 60 56 53 52
152 154 157 155 153 150 147 145 143 141 139 138 136 134 132 129 127 123 120 118 115 112 110 108 105 104 101 97 91 88 86 94 88 73 51 36 26 67 66 61 56 54 53
150 152 158 156 154 152 150 148 146 144 141 140 138 136 135 132 128 124 122 121 119 117 114 112 110 107 105 100 92 87 89 93 84 66 52 32 18 64 65 63 60 57 54
150 153 159 157 156 154 153 151 149 147 145 143 142 140 137 134 131 128 128 126 124 122 119 116 114 111 108 101 92 89 91 94 88 72 54 27 47 64 64 61 57 58 55
150 153 157 158 157 156 155 154 153 152 150 148 146 144 139 136 135 134 133 132 129 126 125 122 119 116 112 103 92 87 91 92 86 78 59 24 67 67 64 58 59 59 55
150 153 155 157 157 157 157 156 155 154 153 151 150 147 143 141 141 140 139 137 134 132 131 127 123 120 115 105 92 87 90 94 89 81 65 35 68 66 63 61 60 60 55
150 154 152 153 154 155 156 156 155 154 154 154 150 146 144 146 146 144 143 141 139 137 134 131 128 125 119 108 95 90 90 90 89 87 56 65 72 71 68 66 62 60 57
159 159 155 153 152 151 153 158 154 155 157 154 148 147 142 135 135 140 143 146 144 143 141 139 136 131 121 102 94 90 88 92 99 87 36 89 82 74 73 67 64 62 59
169 168 163 159 157 155 159 155 152 151 151 146 143 142 134 132 139 143 151 152 152 151 150 149 145 134 111 62 64 80 86 109 105 113 107 99 89 80 76 70 69 65 60
170 169 168 165 162 160 157 155 152 146 146 144 145 143 141 137 141 140 144 152 151 147 137 144 131 114 117 127 97 103 130 125 127 143 113 107 99 86 79 74 68 63 59
171 173 170 168 166 165 159 160 157 156 157 157 159 154 149 147 148 151 150 150 148 141 146 141 145 173 179 193 167 138 138 142 149 157 178 123 113 100 86 76 68 62 59
174 175 174 172 171 168 164 167 167 166 166 165 164 165 160 159 163 163 164 164 166 160 163 170 177 186 195 193 176 155 148 157 162 162 175 143 138 123 97 76 67 56 49
178 177 175 175 174 171 172 172 171 172 169 169 172 174 170 166 168 169 170 172 176 177 176 177 182 176 181 163 159 155 156 163 169 170 178 177 166 164 161 128 35 11 10
180 178 177 177 175 175 175 175 174 175 173 177 179 178 177 173 173 172 172 178 185 182 175 169 175 155 158 148 149 159 160 174 179 185 181 182 208 216 221 229 261 291 313
178 178 179 179 178 179 178 177 175 177 178 181 180 180 182 179 176 173 175 184 183 173 166 165 164 151 156 151 161 183 176 183 193 196 188 185 191 218 236 232 249 271 288
181 179 180 181 180 181 179 176 175 177 181 183 181 183 185 183 179 176 179 182 175 170 171 173 165 156 162 168 179 199 212 204 207 203 204 202 202 203 217 235 242 261 277
185 182 182 182 180 178 175 171 172 178 184 184 185 187 184 184 180 177 177 178 173 169 173 169 161 156 161 166 154 89 289 256 227 215 218 215 213 212 212 221 241 267 269
186 184 184 183 181 177 179 180 182 188 187 188 189 186 184 184 181 180 178 177 177 179 179 169 155 157 165 141 100 8 330 309 260 243 228 217 222 220 212 218 222 235 271
189 188 187 186 184 184 187 187 186 181 182 184 184 187 187 184 184 185 180 182 182 176 175 176 161 154 170 160 140 124 322 326 306 273 250 226 229 225 226 227 222 224 233
193 191 189 189 187 187 182 171 157 149 149 173 189 194 193 189 188 187 186 183 183 181 186 187 177 167 178 197 169 155 169 229 283 303 271 248 236 233 243 243 236 233 232
196 193 191 189 188 187 180 178 176 181 188 193 190 191 190 190 189 188 187 187 187 187 187 190 186 178 168 187 204 197 182 167 177 279 300 278 253 243 243 243 240 241 236
195 192 192 189 189 186 185 185 186 192 194 179 174 181 187 191 192 191 189 190 191 192 191 189 185 185 181 180 179 172 178 177 175 187 258 283 286 256 241 235 237 241 236
194 192 190 189 190 187 187 189 191 193 186 176 182 187 191 191 193 195 192 193 194 193 193 192 189 189 191 186 183 174 171 177 193 192 222 246 261 269 255 240 233 236 237